Location: Hillern
(53.0557°N, 9.8577°E)
Time: 00:56:58
(UTC+00:00)

Meteor 1-26 Rocket - Pass Details

Date: 19 May 2025
Orbit: 805 x 928 km, 81.3° (Epoch: 23 June)

Event Time Altitude Azimuth Distance (km) Brightness Sun altitude
Exits shadow 20:53:42 - 192° (SSW) 3,302 6.9 -10.7°
Reaches altitude 10° 20:55:38 10° 192° (SSW) 2,564 6.3 -10.8°
Maximum altitude 21:01:32 88° 284° (WNW) 922 4.4 -11.3°
Drops below altitude 10° 21:07:36 10° 13° (NNE) 2,638 7.5 -11.8°
Sets 21:10:06 0° 14° (NNE) 3,591 8.2 -12.0°
